Location: Hemaruka
(51.7801°N, 111.0917°W)
Time: 10:46:27
(UTC+00:00)

NOAA 15 - Pass Details

Date: 13 December 2023
Orbit: 797 x 810 km, 98.6° (Epoch: 02 March)

Event Time Altitude Azimuth Distance (km) Brightness Sun altitude
Rises 00:54:21 0° 131° (SE) 3,317 7.5 -14.4°
Reaches altitude 10° 00:56:54 10° 121° (ESE) 2,388 6.7 -14.8°
Maximum altitude 01:01:29 31° 61° (ENE) 1,376 5.3 -15.5°
Drops below altitude 10° 01:06:06 10° 0° (N) 2,393 6.9 -16.2°
Sets 01:08:38 0° 351° (N) 3,326 7.7 -16.5°
